GFSCGP_sfc_30mbdewp_078.txt.gz
Dewpoint
34 31 28 27 34 35 32 31 30 27 33 31 37 35 38 40 43 42 44 46 49 51 55 57 56 58 59 56 58 59 59 60 59 62 60 61 61 63 63 64 63 63 63 63
31 28 29 34 36 34 32 31 33 37 38 33 37 36 37 39 42 43 43 44 49 51 53 54 57 58 58 59 59 59 59 59 60 61 61 60 61 62 61 61 61 62 63 63
30 29 35 37 33 31 31 32 33 33 37 37 36 35 36 38 42 45 44 44 45 47 51 52 55 56 58 59 59 59 60 60 59 60 62 62 63 62 61 61 61 62 62 63
32 36 35 36 32 35 31 35 35 33 32 30 36 27 32 36 41 44 43 43 45 45 45 47 48 50 55 56 58 59 61 59 59 59 59 60 59 58 60 60 61 62 63 63
32 34 34 33 33 37 33 37 34 34 30 33 32 30 31 38 39 41 43 44 45 45 44 42 41 41 42 44 45 50 59 61 60 61 60 59 58 60 60 60 59 61 61 62
35 37 37 35 36 38 38 34 34 34 31 28 31 32 29 29 27 37 39 40 39 39 40 40 42 43 44 46 48 51 54 59 61 61 60 59 57 59 59 59 59 60 60 61
32 35 36 36 36 39 37 31 27 25 27 26 33 28 29 27 27 31 38 35 38 38 40 42 43 44 45 45 46 50 52 52 55 58 60 60 61 60 59 59 59 60 60 59
28 27 33 38 37 35 33 31 24 19 24 26 27 26 28 29 32 37 37 37 36 37 37 39 40 42 44 44 44 44 44 44 45 46 49 54 58 59 60 60 60 60 59 59
30 29 38 38 37 35 31 28 27 28 30 22 26 25 28 30 32 35 37 37 37 35 35 36 37 37 38 39 41 42 43 43 44 44 45 46 49 53 55 56 58 59 59 59
33 29 34 34 34 32 29 27 25 28 21 20 23 21 24 28 30 31 32 34 35 35 35 35 35 36 37 38 38 38 39 40 42 43 44 44 45 46 50 53 54 56 57 57
32 29 30 32 32 31 28 25 25 24 24 18 18 21 25 28 30 31 32 33 32 32 31 31 31 31 32 34 37 38 38 38 38 39 41 43 43 44 44 46 49 52 54 54
32 30 29 29 32 33 34 28 23 20 18 20 18 19 27 28 31 32 32 31 29 29 29 29 30 30 30 31 32 35 38 38 39 39 39 40 42 43 43 43 45 47 49 51
29 28 27 26 27 30 29 27 25 23 23 19 17 20 27 29 31 33 31 29 28 28 29 29 30 30 30 32 33 34 36 37 38 39 39 39 39 41 42 42 43 44 45 47
30 27 25 21 25 29 27 27 27 24 22 18 18 23 27 30 31 33 30 28 28 29 30 30 30 30 31 32 34 35 36 37 38 38 38 39 39 40 40 42 42 42 44 44
30 28 27 26 27 29 29 29 28 25 23 20 21 22 27 30 31 33 29 28 29 29 30 30 30 30 31 32 34 34 36 37 37 38 38 39 39 40 41 41 41 41 42 42
30 27 26 25 24 27 27 29 29 27 26 24 23 24 27 31 33 30 28 29 29 29 30 30 30 31 32 33 34 34 35 36 37 37 38 38 39 39 41 41 41 41 41 41
28 28 27 24 22 22 21 23 27 29 29 26 22 27 30 31 31 30 29 29 29 30 30 30 30 31 32 33 35 35 36 36 36 37 38 38 38 38 39 41 40 40 40 41
27 26 26 25 22 18 20 27 27 26 28 29 28 30 30 31 30 30 30 30 30 30 30 30 31 33 33 35 35 35 35 36 36 37 37 38 38 38 39 40 40 40 41 40
27 24 22 21 20 18 21 26 26 25 24 28 28 28 28 28 28 29 31 30 30 30 31 31 33 33 32 33 32 35 35 35 35 35 36 38 39 38 38 39 40 41 40 40
28 26 23 21 15 10 20 26 28 29 18 27 27 28 27 27 27 28 30 30 30 31 31 31 31 30 29 26 30 30 31 32 33 34 35 36 38 38 38 39 39 40 40 40
26 26 23 23 20 20 23 27 28 19 18 27 27 28 28 27 27 28 30 30 31 31 29 29 26 27 24 25 28 26 26 26 28 29 33 34 35 38 38 38 39 39 39 39
25 23 23 23 21 13 26 27 23 25 27 28 28 29 29 28 29 30 30 30 28 27 26 25 24 25 23 24 25 24 23 24 26 27 29 30 32 36 37 37 38 38 38 38
23 25 21 23 20 25 27 28 29 29 28 29 29 30 29 29 29 29 28 25 25 25 24 24 23 23 21 21 23 22 20 22 23 25 25 26 26 30 35 37 36 36 36 36
27 27 25 25 25 26 27 28 29 30 29 30 30 30 30 28 28 26 25 24 24 24 24 23 23 22 20 20 21 21 22 22 23 22 23 24 24 26 27 33 36 36 35 35
26 27 26 26 26 26 27 29 29 30 30 30 30 29 28 27 25 23 23 24 24 24 23 23 24 22 21 21 21 21 22 23 22 22 22 23 23 23 25 28 33 36 36 36
27 26 24 21 26 26 26 28 29 29 29 29 27 25 26 27 24 25 24 24 23 21 20 23 22 22 22 21 22 22 22 22 22 21 22 22 23 24 26 27 29 32 36 38

GFSCGP_sfc_30mbdewp_081.txt.gz
Dewpoint
32 30 29 27 28 27 30 30 30 33 28 26 26 27 28 39 40 41 36 36 41 47 54 54 57 57 56 57 58 58 59 59 60 60 60 60 59 61 62 63 63 62 61 61
29 28 26 30 29 31 31 30 31 33 31 30 24 29 28 38 39 41 42 40 44 52 54 56 57 58 57 58 57 59 59 59 60 60 59 60 59 59 61 62 62 61 62 62
26 27 30 35 34 33 32 30 31 32 34 33 33 35 36 36 38 40 44 45 49 51 52 53 55 57 58 57 58 57 58 59 59 60 60 59 59 60 60 61 61 62 62 62
30 30 35 35 32 32 29 33 34 34 31 28 32 26 34 35 36 43 43 45 47 49 51 52 53 55 56 57 56 58 59 59 59 60 60 59 58 57 59 60 61 61 61 62
32 33 35 34 33 38 34 35 34 34 33 33 32 28 32 35 37 43 45 46 46 47 47 48 50 51 52 53 58 58 59 60 61 60 60 59 59 59 60 60 59 60 61 61
34 36 36 36 35 37 38 36 36 35 35 28 32 30 29 30 32 35 41 41 41 42 45 47 47 46 47 48 49 49 53 58 59 59 60 59 59 59 58 59 59 58 59 60
30 34 36 37 35 37 38 33 28 27 27 25 32 27 29 34 32 35 39 40 41 42 43 46 46 45 45 46 48 53 53 53 56 57 59 60 59 60 59 58 59 58 59 60
29 28 34 38 37 33 36 30 27 23 25 26 30 26 29 36 38 39 38 39 40 40 41 41 41 44 43 44 44 44 44 44 45 46 48 52 57 60 60 60 60 59 59 60
30 30 38 38 36 35 31 28 28 26 23 22 28 31 34 36 36 37 37 37 37 39 39 39 40 38 39 39 40 41 42 43 44 44 44 45 47 51 54 56 58 60 60 60
35 30 36 34 34 33 30 27 27 28 22 20 23 25 27 33 34 36 37 37 37 36 36 35 34 35 37 38 38 38 38 39 40 41 43 44 44 45 47 50 53 55 57 57
32 32 29 32 31 30 29 24 23 23 23 17 18 23 27 29 32 33 35 36 35 35 31 30 30 30 31 32 36 37 38 38 39 39 39 41 43 44 44 45 47 50 53 55
31 30 28 28 31 32 32 24 22 21 20 20 20 22 27 30 31 32 31 30 29 29 29 29 29 30 31 31 32 34 36 37 37 38 39 39 39 42 43 43 44 45 47 51
28 27 28 26 28 29 27 25 24 23 24 19 19 22 27 30 31 31 30 29 29 29 29 29 30 30 31 32 33 34 35 36 37 37 38 38 39 40 39 42 43 43 44 46
31 27 27 24 27 29 26 25 23 25 22 15 20 23 26 29 31 31 29 29 29 29 30 30 30 30 31 32 33 33 35 36 36 37 37 38 38 39 40 40 41 42 43 44
30 28 27 25 27 28 27 26 24 23 21 19 21 22 26 29 31 32 30 29 29 29 30 30 30 30 31 32 33 34 35 35 36 36 37 38 38 39 40 41 41 41 42 42
30 28 28 24 24 26 26 27 26 26 24 22 22 24 27 30 31 31 29 29 29 30 30 30 30 30 31 32 33 34 35 35 35 36 37 38 38 39 39 40 41 41 42 42
28 29 29 24 23 23 20 23 26 28 28 26 21 27 28 31 32 30 29 30 30 30 30 30 30 31 32 33 34 34 34 35 35 36 36 37 38 39 39 39 40 41 41 42
27 27 29 26 24 18 20 26 27 26 28 29 29 29 29 30 32 31 31 30 30 30 30 30 30 31 32 31 31 32 34 34 34 35 35 36 37 38 39 39 40 41 42 41
26 23 22 22 17 17 20 24 25 25 24 28 28 29 29 30 30 30 30 30 30 30 30 31 31 31 29 27 26 27 27 28 29 29 32 34 35 37 38 39 39 40 41 41
28 26 23 19 16 8 20 26 28 28 18 27 29 29 28 29 28 29 30 30 30 31 31 30 30 25 27 22 24 26 25 25 24 25 27 29 33 34 36 37 38 39 40 40
24 24 22 20 18 19 23 27 28 19 21 27 28 29 29 28 28 29 30 30 31 30 28 26 23 23 21 20 22 23 23 22 23 24 25 26 29 30 34 37 38 38 38 39
23 22 20 22 20 16 25 28 24 26 28 28 29 29 29 29 29 29 29 29 28 25 24 22 21 21 21 20 21 21 20 21 20 20 21 23 24 25 26 32 35 36 37 37
21 24 21 22 21 25 27 28 29 29 28 29 29 30 30 29 29 28 28 25 22 22 22 21 20 18 18 18 18 18 18 19 20 20 19 19 20 21 21 23 26 32 36 36
26 27 24 24 24 26 27 27 29 30 29 30 30 30 30 28 27 26 23 21 20 21 21 20 18 17 17 17 17 18 19 19 20 19 19 19 19 21 21 21 24 29 32 34
26 27 25 25 25 26 27 28 28 29 30 30 30 29 28 27 23 21 20 20 21 21 21 20 19 19 19 20 20 19 19 19 19 19 19 19 19 19 20 21 23 25 29 31
26 24 23 18 26 26 27 28 29 29 30 29 28 26 25 25 23 22 22 21 20 20 19 19 19 20 20 21 21 20 20 20 18 17 19 19 21 22 22 23 24 27 29 32

GFSCGP_sfc_30mbdewp_084.txt.gz
Dewpoint
34 32 28 28 30 29 28 27 27 29 30 34 32 30 28 33 38 40 41 40 37 41 54 55 57 58 58 58 58 60 59 58 60 61 59 58 60 62 63 63 64 64 64 64
31 30 28 28 34 33 32 29 29 31 33 34 34 29 29 31 37 39 42 43 44 48 53 54 55 57 57 58 58 59 59 59 59 60 60 59 59 60 61 62 62 62 62 62
30 27 34 34 34 32 32 29 31 30 34 35 30 26 28 35 37 38 41 45 47 48 52 50 52 55 57 55 58 59 59 59 59 60 60 59 60 59 59 60 61 62 62 63
33 33 30 31 34 34 28 33 32 32 31 26 33 24 31 35 35 37 43 45 48 51 52 52 53 54 55 57 57 59 59 59 59 60 58 59 57 57 59 60 61 61 61 62
29 33 34 34 35 36 32 36 33 35 33 32 31 30 31 35 35 36 44 46 47 48 48 48 49 50 51 52 56 57 58 60 59 59 59 58 58 59 59 60 60 60 61 61
35 35 36 34 35 37 37 36 35 34 33 25 30 30 28 31 33 35 41 43 45 46 47 48 49 49 50 52 53 53 57 57 58 58 58 59 58 58 58 58 58 59 59 60
32 35 37 37 35 37 37 34 28 25 26 24 33 27 29 35 36 37 40 41 43 45 46 47 47 47 47 48 49 49 51 52 55 56 57 59 59 59 59 58 58 58 58 59
29 28 35 38 35 36 34 34 27 22 24 25 30 25 29 36 39 39 40 41 41 42 41 43 46 45 44 43 44 45 44 44 45 46 48 51 55 58 60 59 59 59 58 59
29 30 38 38 38 34 32 32 33 32 28 27 28 30 34 36 37 38 38 39 40 40 41 41 40 40 39 38 38 39 40 40 42 43 44 45 45 48 52 54 57 60 60 60
35 30 36 34 38 35 31 29 27 31 25 22 26 29 29 33 34 37 37 37 37 38 38 35 36 37 36 38 38 39 39 39 39 39 40 43 44 44 45 46 50 52 55 56
34 34 29 32 31 30 28 24 24 24 23 20 21 26 31 37 37 37 37 36 33 34 32 30 31 31 31 33 35 36 37 38 38 38 39 40 40 42 43 44 44 46 49 53
30 31 27 27 30 31 32 25 22 22 20 23 23 23 30 32 32 31 30 31 29 29 29 30 30 31 32 33 34 35 36 37 37 38 38 39 40 40 40 41 43 43 44 47
30 27 28 26 28 30 26 24 26 25 27 20 22 23 30 31 30 29 28 28 29 29 30 30 30 31 32 33 33 34 35 36 36 37 38 39 39 39 40 41 41 42 43 44
33 28 27 25 27 29 26 25 24 25 21 22 23 25 29 31 30 29 29 29 29 30 31 31 30 31 32 33 33 34 35 36 36 36 38 38 39 39 39 40 41 41 42 42
31 26 27 25 27 28 27 26 25 23 20 21 24 25 29 31 31 30 29 29 29 30 30 30 31 31 31 33 34 35 35 36 36 36 37 38 39 39 39 40 40 42 42 42
30 26 28 23 25 25 24 26 27 27 25 23 25 25 29 31 32 30 29 29 30 30 30 30 30 31 32 33 34 34 35 35 35 36 37 38 38 39 39 39 40 41 42 41
29 29 30 22 23 23 22 23 26 28 28 27 25 27 29 30 32 30 29 30 30 30 30 30 30 31 32 32 33 31 34 35 34 36 36 36 37 38 39 39 39 40 40 42
26 27 30 23 25 19 21 25 26 26 28 29 29 29 31 31 32 31 31 30 30 30 30 30 31 32 30 29 27 29 30 30 31 32 32 34 35 35 37 38 38 39 39 40
27 25 23 22 17 17 21 25 26 26 26 28 29 29 30 30 30 30 30 31 30 30 31 31 31 29 27 24 24 27 27 27 27 26 27 29 31 34 35 36 36 37 38 38
28 26 24 21 16 11 21 27 28 28 22 28 29 29 29 29 28 29 30 30 30 31 31 28 29 24 25 21 20 23 25 25 24 25 26 27 27 30 30 34 35 36 36 37
24 24 22 20 20 20 26 27 28 19 22 27 29 30 29 29 28 30 30 30 31 30 28 25 24 22 23 22 21 22 23 24 24 24 23 24 25 27 27 29 33 34 34 35
23 23 21 21 20 16 27 27 23 26 28 29 29 30 30 29 29 29 29 29 28 26 24 23 21 21 21 22 21 21 21 22 21 20 20 21 21 21 23 23 25 28 32 34
19 24 23 22 23 25 27 29 30 29 29 29 30 30 30 29 29 28 28 25 22 22 22 22 21 20 19 18 18 18 18 19 19 20 20 20 20 19 20 21 21 23 28 31
25 27 24 23 24 26 26 28 29 30 29 30 30 30 30 29 27 25 23 21 21 21 21 22 21 20 18 18 19 19 20 19 19 19 20 20 20 20 20 21 22 22 24 28
26 27 25 24 25 26 27 28 29 29 30 30 30 29 28 26 24 21 21 21 21 22 22 21 21 21 20 21 22 22 21 21 20 20 20 20 20 20 20 21 22 23 25 27
27 26 24 20 26 26 27 28 29 29 30 30 29 27 25 25 23 22 22 22 20 19 19 19 20 21 21 20 21 23 22 21 20 19 18 19 20 21 22 23 23 26 28 28

GFSCGP_sfc_30mbdewp_087.txt.gz
Dewpoint
35 30 27 29 30 29 27 26 25 27 28 30 32 34 34 30 31 35 36 37 37 41 53 56 57 57 58 58 59 59 59 59 61 59 58 60 60 63 63 61 63 63 62 62
31 28 30 30 29 29 31 30 28 29 30 34 34 33 35 32 33 36 39 42 44 47 50 52 54 57 57 57 59 59 58 59 60 60 59 59 60 61 62 62 62 63 63 63
29 28 31 31 31 31 31 30 29 28 30 35 33 32 31 31 37 39 40 44 46 47 46 50 53 55 54 56 57 59 59 59 60 60 60 60 59 59 59 60 61 62 63 63
32 34 32 32 32 33 29 35 34 33 31 24 33 21 29 34 35 38 44 45 46 48 51 52 53 53 53 53 56 58 59 60 60 60 59 59 57 56 59 60 61 61 61 61
26 32 32 32 34 36 32 36 35 33 31 31 30 28 31 34 33 36 42 46 46 48 49 49 49 51 51 52 53 54 57 59 59 59 59 58 58 59 59 60 59 59 60 60
33 36 35 35 36 36 37 37 35 35 32 26 26 28 28 31 33 36 40 44 46 47 48 48 49 49 50 51 54 54 55 56 58 58 59 59 58 58 58 58 57 58 59 60
31 34 37 37 34 37 37 32 26 24 23 24 32 28 29 35 36 37 40 41 43 44 46 46 47 47 47 48 49 52 51 51 52 53 55 57 58 58 58 58 58 57 57 58
28 26 35 38 35 34 35 33 26 21 22 25 29 25 29 36 39 40 41 41 42 42 43 44 44 44 43 41 41 43 45 45 46 47 49 50 53 56 59 59 58 58 58 58
29 29 38 38 38 36 33 31 35 31 29 27 28 30 33 35 37 38 39 39 40 40 41 41 42 42 41 38 39 39 39 39 39 41 43 44 46 47 48 52 56 59 59 60
35 29 34 36 37 36 33 32 27 30 24 22 27 28 28 31 33 36 36 37 38 39 38 37 37 37 35 36 37 38 38 38 38 39 40 40 42 43 44 46 46 49 52 54
36 34 30 34 30 28 30 26 26 25 25 21 20 26 37 35 36 35 35 36 36 37 35 33 32 33 33 34 35 36 37 37 37 38 39 39 40 40 41 42 43 44 45 46
34 30 28 26 30 31 31 27 24 22 20 23 23 26 36 36 35 34 33 31 30 32 31 30 31 32 33 33 35 35 36 36 37 38 39 39 39 39 40 40 41 42 42 44
30 27 26 26 25 28 27 25 25 27 24 23 21 26 31 30 31 33 31 30 29 29 30 30 31 32 33 33 34 35 35 36 36 37 38 39 39 39 39 40 41 42 42 42
33 27 26 23 26 29 26 26 26 24 20 23 24 28 30 29 28 28 28 29 30 30 30 30 31 31 33 33 34 35 35 36 36 37 38 38 39 39 39 39 40 41 42 42
30 25 25 25 28 26 26 27 27 25 23 21 26 28 30 30 29 28 29 29 30 30 30 31 30 31 32 33 34 34 35 35 35 36 37 37 38 39 39 39 39 40 41 42
31 23 28 22 25 22 21 25 27 27 26 25 26 27 31 32 31 29 29 29 30 30 30 30 31 32 32 33 34 33 34 35 35 36 36 36 37 37 37 38 39 39 40 40
28 28 29 18 24 23 18 22 26 28 28 27 25 27 31 32 30 29 29 30 30 30 30 30 31 32 31 32 29 29 33 33 31 34 34 34 35 35 36 36 37 37 38 39
26 26 29 20 25 11 20 25 26 25 28 29 29 31 31 32 31 31 30 30 30 30 30 30 31 31 29 28 26 27 27 28 27 27 27 28 29 31 34 34 36 36 36 37
28 25 21 18 16 17 20 25 26 25 26 28 29 30 30 31 31 30 30 31 30 30 31 31 32 29 26 25 23 24 25 26 26 25 26 26 28 27 30 30 32 34 35 35
27 26 23 21 15 11 20 26 28 28 22 27 30 29 29 29 28 29 30 30 30 31 30 28 28 24 24 22 21 21 22 24 25 25 26 25 25 25 26 28 28 31 34 34
23 23 21 21 18 20 25 27 28 16 18 27 29 30 29 29 29 30 30 30 30 30 28 26 23 22 22 23 23 21 22 22 24 25 23 22 23 23 23 25 27 26 29 32
20 21 21 21 19 10 27 27 21 25 28 28 29 30 29 29 29 29 29 29 29 27 25 24 23 22 22 22 21 20 20 21 21 20 20 20 21 21 21 21 22 22 23 26
16 21 22 20 20 25 27 28 29 29 28 29 29 30 30 29 29 29 28 25 22 22 22 22 22 21 21 20 18 18 18 19 19 19 19 20 20 20 20 20 20 21 22 24
24 27 22 21 22 25 26 29 30 29 30 30 30 30 30 28 27 25 22 21 21 21 21 22 22 21 21 21 20 21 21 21 21 20 20 20 20 21 21 20 21 21 22 22
23 26 24 24 25 26 27 27 28 29 30 30 29 29 27 26 23 22 22 22 22 21 21 21 20 20 21 21 21 21 21 22 22 21 20 20 20 19 20 21 22 22 24 25
27 25 23 19 24 25 27 28 29 29 29 30 29 27 25 24 23 22 21 21 19 19 19 18 19 19 20 20 20 20 21 21 20 20 18 18 20 20 21 21 22 23 24 25

GFSCGP_sfc_30mbdewp_090.txt.gz
Dewpoint
35 29 26 27 29 27 25 26 26 27 28 28 28 29 32 34 35 31 32 35 36 35 35 54 56 56 57 57 57 58 58 58 58 58 58 59 59 61 62 62 62 60 59 58
31 27 29 29 30 30 29 28 26 29 29 32 32 32 32 34 35 32 34 38 41 45 50 51 54 55 56 57 58 58 59 59 59 59 59 59 60 61 62 62 62 60 59 59
27 26 31 30 30 29 29 28 27 29 32 32 30 29 30 33 35 39 42 44 45 46 46 49 52 53 54 54 56 58 59 59 59 60 60 59 61 60 61 62 61 61 60 60
30 32 31 30 30 31 28 31 34 33 31 24 32 19 31 34 35 38 42 45 46 49 51 51 52 51 52 53 54 56 58 59 60 60 60 58 58 57 58 60 61 61 62 61
25 31 31 32 32 35 31 36 36 34 30 30 29 26 26 33 32 35 39 43 45 48 49 49 49 51 51 53 54 55 57 57 59 59 59 58 58 59 60 60 60 60 61 61
31 35 35 33 36 36 35 35 36 34 32 23 26 25 27 31 33 35 39 42 44 47 47 48 49 49 49 50 53 52 52 53 54 57 57 58 58 58 58 58 58 59 59 59
29 32 36 37 34 37 36 32 25 23 23 23 31 27 29 34 36 37 40 41 42 43 44 45 45 45 46 46 48 48 48 48 50 52 52 53 57 58 58 58 57 57 58 58
28 24 35 38 35 34 35 32 27 21 21 24 32 25 29 36 38 40 41 41 42 41 42 43 43 44 44 44 44 44 44 44 44 46 48 50 51 53 54 57 58 58 58 58
29 28 36 38 38 38 34 31 35 30 29 25 28 30 33 35 37 38 38 39 39 40 40 41 42 42 41 40 39 40 40 40 40 41 41 42 44 48 49 49 51 54 56 58
35 29 34 34 38 37 36 34 29 30 24 21 25 28 27 31 32 34 36 36 38 39 39 39 40 40 38 38 37 37 37 38 38 39 39 40 40 41 43 44 45 45 47 49
36 33 28 33 31 28 31 30 29 26 28 24 19 25 35 32 33 33 34 37 37 38 38 38 38 38 35 35 36 36 36 36 37 38 39 39 39 40 40 41 41 42 42 43
35 30 27 27 29 31 31 29 25 21 20 23 22 25 38 37 37 36 34 34 36 37 35 34 33 33 33 34 35 35 35 36 37 38 39 39 39 39 39 40 41 41 41 42
30 27 25 24 20 27 27 27 27 26 24 23 19 23 34 36 35 35 33 31 32 31 30 31 32 32 33 34 35 35 35 35 36 38 38 38 38 39 39 39 40 41 41 42
32 27 26 21 26 28 25 27 27 23 20 23 24 28 29 29 31 32 30 29 30 30 30 31 31 32 33 34 34 34 35 35 36 37 37 37 37 38 38 39 40 40 41 41
29 23 25 25 28 25 25 26 27 24 24 20 26 27 30 29 28 28 29 30 30 30 30 30 31 32 33 33 34 32 34 35 35 36 35 36 36 36 36 37 38 39 39 40
30 23 28 22 24 23 20 25 27 27 27 27 27 27 31 31 30 29 29 29 30 30 30 30 31 32 32 32 31 28 32 32 31 34 33 32 31 32 34 35 36 36 37 38
28 27 28 15 23 24 15 21 26 27 28 27 25 27 31 31 30 29 29 29 30 30 30 30 31 31 31 31 27 26 28 29 26 27 28 27 28 28 29 32 32 33 34 35
26 26 27 19 22 7 16 25 26 26 28 29 30 31 31 32 31 30 30 30 30 30 30 30 31 31 29 28 25 25 26 26 26 26 26 26 26 26 26 28 28 29 32 33
28 26 20 18 15 15 20 23 25 25 25 28 29 31 31 30 30 30 31 31 30 30 31 31 31 29 25 26 22 21 21 23 24 24 25 26 25 24 24 24 25 27 29 30
26 26 23 20 13 7 17 26 28 27 17 27 29 29 30 30 29 30 30 30 30 31 31 29 27 25 23 23 23 22 22 23 21 23 24 25 23 22 22 22 23 26 28 27
21 22 20 20 17 18 23 27 28 15 10 27 30 30 29 28 29 30 30 30 30 30 29 26 24 23 22 22 22 20 21 20 21 23 24 22 22 22 22 22 23 23 23 25
16 18 21 21 19 6 27 27 20 19 28 28 30 30 30 29 30 30 29 30 30 27 26 24 23 22 22 22 20 19 18 20 20 21 21 21 21 21 21 21 21 21 21 21
19 20 20 20 16 22 28 25 28 27 27 29 29 30 30 29 29 29 29 28 24 22 22 22 22 22 22 22 21 19 19 20 21 21 21 21 21 20 21 21 20 20 21 22
23 26 24 21 17 24 26 29 29 29 29 30 31 30 30 29 28 26 24 21 21 21 22 22 21 20 20 21 21 21 21 21 21 21 21 21 20 21 21 19 20 20 21 22
23 26 24 23 23 25 26 28 29 29 30 30 30 29 29 27 24 22 21 22 22 21 19 19 19 19 19 21 20 20 20 20 20 20 20 20 20 19 19 20 20 21 23 24
26 24 22 17 21 22 25 28 29 29 30 30 28 26 25 24 23 22 21 21 18 19 18 18 18 18 18 19 19 19 20 20 19 18 18 17 19 20 20 20 20 22 22 23

GFSCGP_sfc_30mbdewp_093.txt.gz
Dewpoint
34 28 23 25 27 25 22 23 24 26 28 28 28 29 30 31 34 34 35 33 33 36 38 37 49 56 56 56 57 57 57 58 58 58 58 58 58 59 61 62 62 62 62 62
31 26 28 29 28 28 28 27 25 27 29 32 31 31 32 32 32 35 34 36 38 43 49 52 52 54 55 56 57 57 57 58 58 58 58 58 59 59 60 61 62 62 61 61
25 24 31 29 29 29 28 27 27 27 31 34 33 28 30 34 37 40 43 44 46 47 48 49 50 52 53 53 55 57 58 59 59 59 59 59 60 60 60 61 60 61 61 61
29 30 29 30 30 29 27 29 30 30 31 25 30 20 27 33 35 37 41 44 45 47 47 48 49 50 52 53 54 55 57 57 58 60 59 58 57 56 58 58 61 61 61 61
26 30 31 31 31 32 30 33 34 34 32 29 28 24 25 32 31 35 39 42 44 47 48 48 49 50 51 53 54 54 54 54 55 59 59 58 57 58 59 59 60 60 60 61
32 33 34 33 34 34 34 34 34 34 31 24 24 24 23 30 32 35 39 41 43 44 45 46 47 47 47 49 50 49 50 50 52 53 54 55 57 58 58 58 58 59 60 59
29 31 33 36 34 36 35 32 24 23 23 20 31 25 27 33 36 38 39 40 41 42 43 43 43 44 45 45 46 47 46 46 47 48 50 51 53 55 57 57 57 57 58 58
28 23 34 37 34 34 34 32 26 20 21 24 32 26 28 36 38 40 40 40 40 40 41 42 42 43 43 43 44 44 44 43 44 45 45 46 49 51 52 53 54 56 57 58
29 27 34 37 37 37 35 31 36 29 30 25 27 31 33 36 36 37 37 37 38 39 40 40 41 42 42 41 41 40 41 41 40 40 42 42 44 46 47 48 49 50 52 53
34 29 32 34 38 38 37 38 29 30 23 21 25 28 28 31 32 33 34 35 37 39 39 40 41 40 40 38 36 36 37 38 38 39 39 39 39 40 42 43 43 43 45 47
35 33 27 33 32 29 33 32 33 30 30 24 20 25 36 32 32 32 35 36 38 38 38 39 39 37 34 35 35 35 36 37 38 38 39 39 39 39 40 40 41 41 42 42
35 31 26 26 29 31 31 28 28 22 20 23 22 26 37 37 36 36 36 37 38 38 38 37 35 34 34 34 35 35 35 36 37 38 38 38 39 39 39 39 40 41 41 42
31 27 25 18 19 27 27 27 28 26 24 22 19 23 35 36 36 35 34 35 36 35 31 31 32 33 33 34 34 34 35 35 36 37 37 37 36 37 37 38 39 40 40 41
32 27 25 20 25 27 24 25 28 23 20 22 23 27 30 31 34 34 31 29 30 30 30 31 31 32 33 33 32 33 34 34 35 36 35 34 34 35 36 37 37 38 39 39
29 23 25 25 26 26 23 25 27 25 25 20 25 26 29 29 31 32 30 30 30 30 30 30 31 32 32 32 29 30 31 30 32 33 29 30 30 31 32 33 34 35 35 36
30 22 28 22 24 24 23 21 26 27 26 27 27 26 31 31 29 28 29 29 30 30 30 30 31 32 31 31 26 26 27 28 26 27 27 27 26 27 28 30 30 31 32 33
28 26 26 14 23 23 16 19 25 27 28 27 23 26 31 30 29 29 29 29 30 30 30 30 31 31 30 29 26 24 24 25 25 25 26 26 25 24 24 26 26 26 28 30
26 26 26 19 18 9 12 25 25 26 28 29 30 30 31 32 31 30 30 29 30 30 30 30 31 31 29 27 25 22 22 22 23 23 23 25 25 23 23 23 23 23 25 27
27 25 21 16 16 13 17 21 24 25 23 28 30 31 31 31 30 30 31 31 31 31 30 31 31 29 24 24 23 21 22 22 22 21 22 23 24 22 22 21 22 23 25 25
26 26 23 20 12 1 14 25 28 25 11 27 30 31 31 30 29 30 30 31 31 31 31 29 27 24 22 22 23 22 21 21 20 21 23 25 24 22 22 22 22 23 23 23
18 22 19 21 18 15 20 27 27 10 4 27 30 30 30 30 31 30 30 30 30 30 29 27 24 23 23 23 22 20 20 19 21 22 22 22 22 22 22 22 22 22 22 22
15 15 18 20 18 4 27 27 18 16 27 28 30 30 30 30 30 30 30 30 30 28 27 24 23 22 23 22 21 20 19 21 21 21 21 21 22 21 21 21 21 21 20 19
18 19 16 21 15 20 28 22 27 27 27 28 29 30 30 30 30 30 29 29 28 23 21 22 22 22 21 21 21 20 20 21 20 20 19 20 21 20 20 21 20 20 20 20
22 25 23 21 15 22 25 27 29 29 28 29 30 30 30 29 29 29 28 24 21 21 22 21 19 17 17 19 20 20 20 19 20 19 19 19 19 20 20 19 19 19 19 20
20 25 24 23 23 24 25 26 28 29 30 30 30 30 30 29 27 25 22 21 22 20 19 18 17 17 17 18 19 19 19 19 19 19 18 18 18 18 19 20 20 20 21 22
26 23 21 17 20 20 20 26 29 29 30 30 29 28 27 25 23 22 22 21 18 18 17 16 16 17 18 19 19 19 19 19 19 18 18 18 19 19 20 20 19 21 21 22

GFSCGP_sfc_30mbdewp_096.txt.gz
Dewpoint
33 26 17 23 26 22 23 24 24 25 27 27 27 28 29 31 32 33 34 34 35 35 36 38 38 38 47 55 55 56 56 57 57 57 57 56 57 57 59 60 60 61 61 61
28 23 27 28 28 27 27 26 25 26 28 30 31 31 33 32 33 36 41 42 43 45 46 49 49 52 54 55 56 56 57 57 57 58 57 58 57 58 59 60 61 62 62 62
23 24 30 29 28 27 27 26 26 26 29 32 32 27 25 34 37 38 42 44 45 46 47 48 49 50 52 53 54 55 56 58 58 58 58 58 58 59 58 59 60 61 62 61
28 30 29 30 29 29 26 29 29 29 30 26 29 21 23 31 34 34 40 42 44 46 48 49 49 50 51 52 54 55 55 54 55 56 57 56 56 56 57 57 59 60 61 61
25 29 31 30 29 30 27 31 31 31 31 31 28 25 23 31 30 32 37 40 42 45 46 46 47 47 48 50 50 52 52 51 52 54 58 58 57 57 58 58 58 59 60 60
30 33 33 31 33 33 33 33 33 33 32 24 24 25 20 29 32 35 38 40 41 42 43 44 45 45 45 46 48 47 47 48 49 50 51 53 54 55 56 57 57 58 60 59
29 31 33 34 33 35 35 32 23 21 22 20 30 25 23 33 34 37 39 39 40 41 41 42 43 43 43 44 44 46 45 45 46 47 47 48 51 52 52 53 54 54 57 58
27 22 32 37 35 34 34 33 26 18 21 23 31 26 28 35 38 39 40 39 39 40 40 41 42 42 42 42 43 43 44 42 42 43 43 45 46 48 48 49 50 50 51 53
28 28 33 37 37 37 35 30 36 28 31 25 26 31 35 36 36 36 36 37 38 39 40 40 41 41 41 40 40 41 41 41 40 39 40 40 41 42 44 44 46 47 48 49
34 28 31 35 38 38 36 37 30 30 22 21 25 27 28 32 32 32 32 33 38 39 39 39 39 39 39 38 38 38 38 38 38 38 39 39 39 39 40 41 41 42 43 44
35 32 28 33 33 30 34 31 33 32 29 24 21 26 36 34 33 33 33 36 38 38 39 39 39 37 36 35 35 35 36 37 37 38 37 38 38 39 39 39 40 41 41 42
35 32 26 25 30 30 31 28 28 23 21 24 22 25 37 36 36 35 35 37 38 39 38 38 37 33 34 34 34 35 35 36 37 37 35 35 36 36 36 37 38 40 40 40
33 27 23 16 20 27 27 27 27 27 24 22 19 23 34 36 36 36 36 37 37 36 32 31 32 33 33 33 32 34 33 35 35 34 32 31 32 33 33 34 35 36 37 38
31 27 25 19 23 27 24 23 27 25 20 21 23 27 31 32 35 34 32 31 32 31 30 31 31 32 32 31 29 31 29 31 33 29 28 28 29 30 31 31 32 33 33 34
30 23 26 25 26 25 24 21 26 25 24 18 24 26 30 32 33 34 32 29 30 30 30 30 31 31 31 30 25 27 28 27 28 27 26 26 26 26 27 28 29 29 30 31
29 24 27 24 24 24 23 23 25 27 27 27 27 26 30 31 30 29 29 29 30 30 30 30 31 31 30 30 25 23 24 25 25 24 25 26 24 24 23 24 24 24 26 28
27 26 24 15 20 21 16 19 24 26 28 26 23 25 31 30 29 29 29 29 29 30 30 30 31 31 30 28 25 22 22 23 22 23 23 24 25 23 23 23 22 22 23 25
26 25 25 17 17 5 10 24 25 25 26 29 29 30 30 31 31 30 30 29 29 30 31 30 31 31 28 25 24 22 23 22 21 21 22 23 25 22 22 22 22 22 23 24
27 25 21 14 14 12 15 19 22 23 19 28 28 30 31 31 30 30 30 31 30 31 30 31 31 28 23 22 23 22 21 21 21 21 21 23 25 23 22 22 22 22 23 23
26 26 22 19 11 -1 9 24 28 24 9 24 30 30 30 30 29 30 30 31 31 31 31 29 27 23 22 22 23 21 21 20 20 21 22 23 23 22 22 22 22 22 22 22
17 21 19 20 16 15 17 26 27 9 2 26 30 30 31 30 31 30 30 30 31 30 29 26 24 23 23 23 21 20 20 20 21 22 21 21 21 22 22 22 22 22 21 21
15 12 16 19 18 3 26 26 17 15 26 27 29 30 30 30 30 30 30 30 30 28 26 23 22 22 22 21 20 19 19 21 21 20 20 20 20 20 21 21 21 21 20 19
15 18 11 18 13 18 26 23 25 26 26 27 29 30 30 30 30 30 30 29 29 23 21 22 21 19 18 19 20 18 18 19 19 19 19 19 19 19 19 20 19 18 19 19
21 24 21 21 16 21 23 26 28 28 26 28 29 30 30 29 30 29 29 27 23 21 21 20 18 16 16 18 18 19 19 19 19 18 18 18 18 19 18 18 19 19 19 19
19 24 22 23 22 23 24 25 26 28 29 30 30 30 30 30 29 29 27 23 21 21 19 18 16 16 16 18 18 19 19 19 18 18 18 18 18 18 19 19 20 20 21 21
25 22 20 17 19 19 18 24 27 28 29 30 29 29 29 29 28 25 23 22 20 17 18 16 15 17 17 18 18 18 19 19 19 18 18 19 20 20 21 21 20 21 20 21